GW0996 Weather Reports


time (UTC)temp
F
wind
direction
speed
knots
gust
knots
rain 1hr
in
rain 24hr
in
rain mn
in
humidity
%
barometer
mb
20260503225241 50 13 0.0 0.0 0.00 0.00 0.00 75 1018.2
20260503224740 50 11 0.0 0.0 0.00 0.00 0.00 75 1018.2
20260503224239 50 12 0.0 0.0 0.00 0.00 0.00 74 1018.2
20260503223741 50 12 0.0 0.9 0.00 0.00 0.00 74 1018.4
20260503223241 51 11 0.0 0.9 0.00 0.00 0.00 74 1018.3
20260503222728 50 14 0.0 0.0 0.00 0.00 0.00 74 1018.2
20260503222229 51 15 0.0 0.9 0.00 0.00 0.00 74 1018.3
20260503221728 51 14 0.0 0.9 0.00 0.00 0.00 75 1018.4
20260503221216 51 14 0.0 0.9 0.00 0.00 0.00 75 1018.5
20260503215717 52 15 0.0 0.9 0.00 0.00 0.00 75 1018.1
20260503215216 52 15 0.0 0.9 0.00 0.00 0.00 73 1018.0
20260503214708 52 13 0.0 0.9 0.00 0.00 0.00 73 1018.1
20260503214154 52 13 0.0 0.9 0.00 0.00 0.00 74 1018.0
20260503213151 53 23 0.0 0.9 0.00 0.00 0.00 73 1017.9
20260503212658 53 22 0.0 0.9 0.00 0.00 0.00 73 1018.1
20260503212151 53 72 0.0 0.0 0.00 0.00 0.00 73 1018.2
20260503211659 54 72 0.0 0.0 0.00 0.00 0.00 72 1018.1
20260503211154 54 72 0.0 0.0 0.00 0.00 0.00 72 1017.9
20260503210142 55 71 0.0 0.0 0.00 0.00 0.00 72 1017.9
20260503205142 55 71 0.0 0.9 0.00 0.00 0.00 71 1018.0
20260503204140 56 12 0.0 0.0 0.00 0.00 0.00 69 1018.0
20260503203142 56 6 0.0 0.0 0.00 0.00 0.00 69 1017.8
20260503202629 57 13 0.0 0.0 0.00 0.00 0.00 69 1017.8
20260503202129 57 348 0.0 0.0 0.00 0.00 0.00 68 1017.7
20260503201628 57 344 0.0 0.0 0.00 0.00 0.00 68 1017.7
20260503201115 58 344 0.0 0.0 0.00 0.00 0.00 68 1017.7
20260503200616 58 343 0.0 0.0 0.00 0.00 0.00 66 1017.7
20260503200116 58 338 0.0 0.9 0.00 0.00 0.00 66 1017.7
20260503195104 58 42 0.0 0.0 0.00 0.00 0.00 66 1017.5
20260503194604 59 40 0.0 0.0 0.00 0.00 0.00 66 1017.5
20260503194053 59 12 0.0 0.0 0.00 0.00 0.00 66 1017.6
20260503193053 60 7 0.0 0.9 0.00 0.00 0.00 65 1017.5
20260503192053 60 359 0.0 0.9 0.00 0.00 0.00 65 1017.4
20260503191552 60 350 0.0 0.9 0.00 0.00 0.00 65 1017.3
20260503191054 60 341 0.0 0.9 0.00 0.00 0.00 66 1017.3
20260503190552 60 345 0.0 0.9 0.00 0.00 0.00 66 1017.4
20260503190053 61 324 0.0 0.0 0.00 0.00 0.00 66 1017.3
20260503185553 61 324 0.0 0.9 0.00 0.00 0.00 65 1017.2
20260503185056 62 323 0.0 0.9 0.00 0.00 0.00 66 1016.9
20260503183542 62 336 0.0 0.9 0.00 0.00 0.00 66 1016.8
20260503183028 62 336 0.0 0.9 0.00 0.00 0.00 66 1016.6
20260503181454 64 313 0.0 1.7 0.00 0.00 0.00 64 1016.7
20260503180953 64 320 0.0 1.7 0.00 0.00 0.00 63 1016.4
20260503180454 65 63 0.0 1.7 0.00 0.00 0.00 62 1016.5
20260503175954 65 312 0.0 0.9 0.00 0.00 0.00 60 1016.5
20260503175453 66 312 0.0 0.9 0.00 0.00 0.00 58 1016.4
20260503174953 67 312 0.0 1.7 0.00 0.00 0.00 56 1016.4
20260503174453 68 312 0.0 1.7 0.00 0.00 0.00 54 1016.4
20260503173952 69 312 0.9 1.7 0.00 0.00 0.00 49 1016.2
20260503172954 70 312 0.9 2.6 0.00 0.00 0.00 47 1016.4
20260503172453 70 315 0.9 3.5 0.00 0.00 0.00 46 1016.4
20260503171952 70 315 1.7 3.5 0.00 0.00 0.00 45 1016.2
20260503171453 71 318 0.0 2.6 0.00 0.00 0.00 45 1016.3
20260503170939 71 316 0.0 2.6 0.00 0.00 0.00 45 1016.5
20260503170441 71 315 1.7 2.6 0.00 0.00 0.00 44 1016.2
20260503150942 74 309 1.7 6.1 0.00 0.00 0.00 42 1016.8
20260503150439 73 52 0.0 3.5 0.00 0.00 0.00 42 1016.7
20260503131353 76 318 0.0 5.2 0.00 0.00 0.00 38 1017.8
20260503130836 76 6 0.0 6.1 0.00 0.00 0.00 39 1017.8
20260503130338 76 306 1.7 7.8 0.00 0.00 0.00 38 1017.7
20260503110339 77 203 0.0 0.9 0.00 0.00 0.00 37 1018.3
20260503090328 71 146 0.0 0.9 0.00 0.00 0.00 44 1019.3
20260503081253 64 177 0.0 0.9 0.00 0.00 0.00 53 1019.6
20260503080751 62 177 0.0 0.9 0.00 0.00 0.00 58 1020.0
20260503080305 63 112 0.0 0.9 0.00 0.00 0.00 55 1020.1
20260503072753 57 16 0.0 0.0 0.00 0.00 0.00 68 1020.4
20260503072251 57 16 0.0 0.0 0.00 0.00 0.00 65 1020.4
20260503071752 56 15 0.0 0.0 0.00 0.00 0.00 70 1020.6
20260503071252 56 15 0.0 0.0 0.00 0.00 0.00 69 1020.5
20260503070752 55 15 0.0 0.0 0.00 0.00 0.00 71 1020.6
20260503070246 55 15 0.0 0.0 0.00 0.00 0.00 72 1020.5
20260503060157 49 23 0.0 0.0 0.00 0.00 0.00 83 1020.9
20260503054654 46 23 0.0 0.0 0.00 0.00 0.00 90 1020.8
20260503054152 45 22 0.0 0.0 0.00 0.00 0.00 93 1020.6
20260503053653 45 22 0.0 0.0 0.00 0.00 0.00 93 1020.7
20260503053156 44 22 0.0 0.0 0.00 0.00 0.00 93 1020.8
20260503052652 44 22 0.0 0.0 0.00 0.00 0.00 93 1020.8
20260503052152 43 22 0.0 0.0 0.00 0.00 0.00 93 1020.4
20260503051653 43 22 0.0 0.0 0.00 0.00 0.00 93 1020.8
20260503051156 43 22 0.0 0.0 0.00 0.00 0.00 94 1020.5
20260503050653 42 22 0.0 0.0 0.00 0.00 0.00 94 1020.5
20260503050154 42 22 0.0 0.0 0.00 0.00 0.00 93 1020.6
20260503045653 42 22 0.0 0.0 0.00 0.00 0.00 93 1020.3
20260503045155 41 22 0.0 0.0 0.00 0.00 0.00 93 1020.6
20260503044653 41 22 0.0 0.0 0.00 0.00 0.00 93 1020.3
20260503044155 42 23 0.0 0.0 0.00 0.00 0.00 93 1020.4
20260503043653 42 23 0.0 0.0 0.00 0.00 0.00 93 1020.4
20260503043152 41 23 0.0 0.0 0.00 0.00 0.00 93 1020.3
20260503042652 41 23 0.0 0.0 0.00 0.00 0.00 93 1020.1
20260503042153 41 23 0.0 0.9 0.00 0.00 0.00 93 1020.1
20260503041654 41 23 0.0 0.9 0.00 0.00 0.00 92 1020.3
20260503041153 42 20 0.0 0.9 0.00 0.00 0.00 92 1020.3
20260503040651 42 28 0.0 0.0 0.00 0.00 0.00 93 1020.2
20260503040152 42 28 0.0 0.0 0.00 0.00 0.00 93 1020.1
20260503033652 42 29 0.0 0.0 0.00 0.00 0.00 92 1020.1
20260503033152 42 29 0.0 0.0 0.00 0.00 0.00 92 1020.2
20260503032652 42 29 0.0 0.0 0.00 0.00 0.00 92 1019.9
20260503032152 42 29 0.0 0.0 0.00 0.00 0.00 92 1020.1
20260503031653 42 29 0.0 0.0 0.00 0.00 0.00 92 1020.1
20260503030653 42 29 0.0 0.0 0.00 0.00 0.00 92 1020.0
20260503030152 43 29 0.0 0.0 0.00 0.00 0.00 91 1020.1
20260503025652 43 29 0.0 0.0 0.00 0.00 0.00 91 1020.1
20260503025152 43 30 0.0 0.0 0.00 0.00 0.00 91 1020.0
20260503024651 43 30 0.0 0.0 0.00 0.00 0.00 91 1020.0
20260503024152 43 30 0.0 0.0 0.00 0.00 0.00 91 1020.0
20260503023652 43 30 0.0 0.0 0.00 0.00 0.00 91 1020.0
20260503023133 43 30 0.0 0.0 0.00 0.00 0.00 90 1019.8
20260503022627 43 30 0.0 0.0 0.00 0.00 0.00 90 1020.1
20260503022128 43 30 0.0 0.0 0.00 0.00 0.00 90 1020.0
20260503021622 43 30 0.0 0.0 0.00 0.00 0.00 90 1020.1
20260503021117 43 30 0.0 0.0 0.00 0.00 0.00 91 1019.8
20260503020616 43 30 0.0 0.0 0.00 0.00 0.00 90 1019.7
20260503020110 43 28 0.0 0.0 0.00 0.00 0.00 89 1019.9
20260503015607 44 28 0.0 0.0 0.00 0.00 0.00 89 1019.8
20260503015052 44 25 0.0 0.0 0.00 0.00 0.00 90 1019.8
20260503014055 44 26 0.0 0.0 0.00 0.00 0.00 89 1019.9
20260503013052 44 26 0.0 0.0 0.00 0.00 0.00 88 1019.9
20260503012552 44 26 0.0 0.0 0.00 0.00 0.00 88 1020.0
20260503012052 44 26 0.0 0.0 0.00 0.00 0.00 88 1020.1
20260503011053 45 17 0.0 0.0 0.00 0.00 0.00 86 1019.9
20260503010553 46 17 0.0 0.0 0.00 0.00 0.00 87 1020.2
20260503010053 45 20 0.0 0.0 0.00 0.00 0.00 87 1020.0
20260503005554 45 22 0.0 0.0 0.00 0.00 0.00 85 1020.2
20260503005052 46 6 0.0 0.0 0.00 0.00 0.00 84 1020.2
20260503004551 46 4 0.0 0.0 0.00 0.00 0.00 84 1020.2
20260503003551 46 5 0.0 0.0 0.00 0.00 0.00 86 1020.5
20260503003053 46 353 0.0 0.0 0.00 0.00 0.00 85 1020.3
20260503002554 46 353 0.0 0.0 0.00 0.00 0.00 84 1020.4
20260503002054 46 353 0.0 0.0 0.00 0.00 0.00 84 1020.2
20260503001555 47 353 0.0 0.0 0.00 0.00 0.00 83 1020.3
20260503001054 47 353 0.0 0.9 0.00 0.00 0.00 83 1020.3
20260503000552 47 350 0.0 1.7 0.00 0.00 0.00 83 1020.1
20260503000052 47 348 0.0 1.7 0.00 0.00 0.00 84 1020.0
20260502235554 47 91 0.0 0.0 0.00 0.00 0.00 85 1020.4
20260502235052 46 92 0.0 0.0 0.00 0.00 0.00 85 1020.3
20260502234552 46 93 0.0 0.0 0.00 0.00 0.00 84 1020.5
20260502234052 47 92 0.0 0.9 0.00 0.00 0.00 84 1020.6
20260502233552 47 94 0.0 0.9 0.00 0.00 0.00 84 1020.3
20260502233051 47 87 0.0 0.9 0.00 0.00 0.00 83 1020.3
20260502232553 47 33 0.0 0.9 0.00 0.00 0.00 82 1020.5
20260502232053 47 37 0.0 0.9 0.00 0.00 0.00 81 1020.5
20260502231553 47 37 0.0 0.9 0.00 0.00 0.00 83 1020.3
20260502231053 47 61 0.0 0.0 0.00 0.00 0.00 82 1020.5
20260502230052 48 55 0.0 0.0 0.00 0.00 0.00 82 1020.5